スローター-バーナム彗星

56P/Slaughter-Burnham (2016)

English version
Home page
Updated on March 3, 2018

---------------------------------------------------------------------

・ プロフィール

・ 写真集

・ 軌道要素

Epoch 2016 July 31.0 TT = JDT 2457600.5
T 2016 July 18.44278 TT                                 MPCW
q   2.5086413            (2000.0)            P               Q
n   0.08595724     Peri.   44.22041     +0.86251866     -0.50485994
a   5.0848842      Node   345.98543     +0.41600796     +0.74606726
e   0.5066473      Incl.    8.14784     +0.28809536     +0.43416595
P  11.47
From 609 observations 1969 Nov. 4-2016 Aug. 16, mean residual 0".7.
     Nongravitational parameters A1 = -0.03, A2 = +0.0246.

・ 星図

・ 光度変化

        m1 =  3.2 + 5 logΔ + 27   log r(t - 40)  [   ,360]  (              〜2017年 7月13日)
        m1 = 12.0 + 5 logΔ + 10.0 log r          [360,   ]  (2017年 7月13日〜              )

---------------------------------------------------------------------

軌道要素はM.P.E.C. 2016-Q04に掲載されたものです。
星図はステラナビゲータ Ver.8 (アストロアーツ) で作成したものです。
光度グラフはComet for Windowsで作成したものです。

---------------------------------------------------------------------

Copyright(C) Seiichi Yoshida (comet@aerith.net). All rights reserved.